User: anonymous   Login
Location: Caltech
(34.1382°N, 118.1253°W)
Time: 23:55:54
(UTC-08:00)
Language:

Meteor 1-11 Rocket - Orbit

View from above orbital plane
View from above orbital plane
View from above satellite
View from above satellite

Ground track
Ground track

The orbit data is extracted from the following two-line orbital elements,

1 05918U 72022B   18055.80487226  .00000157  00000-0  87282-4 0  9996
2 05918  81.2344  81.5035 0058196 337.9216  21.9446 14.05834440353481
Epoch (UTC): 24 February 2018 19:19:00
Eccentricity: 0.0058196
inclination: 81.2344°
perigee height: 831 km
apogee height: 916 km
right ascension of ascending node: 81.5035°
argument of perigee: 337.9216°
revolutions per day: 14.05834440
mean anomaly at epoch: 21.9446°
orbit number at epoch: 35348

The dashed part of the orbit path shows where the satellite is in the earth's shadow,  

DLR